Regional Weather Roundup
Issued by NWS Kansas City/Pleasant Hill, MO

Home | Current Version | Previous Version | Text Only | Print | Product List | Glossary On
Versions: 1 2 3 4 5 6 7 8 9 10 11 12 13 14 15 16 17 18 19 20 21 22 23 24 25 26 27 28 29 30 31 32 33 34 35 36 37 38 39 40 41 42 43 44 45 46 47 48 49 50
000
ASUS43 KEAX 062010
RWREAX

WEATHER ROUNDUP FOR EASTERN KANSAS AND NORTHWEST MISSOURI
NATIONAL WEATHER SERVICE KANSAS CITY/PLEASANT HILL MO
300 PM CDT FRI MAY 06 2016

KSZ040-057-103>105-MOZ028-029-037-043-062100-
...KANSAS CITY METROPOLITAN AREA...

CITY           SKY/WX    TMP DP  RH WIND       PRES   REMARKS
K.C. INTL      MOSUNNY   80  52  37 SW8       30.02F
K.C. DOWNTOWN  SUNNY     82  49  31 SW10      30.01F
LEES SUMMIT    SUNNY     80  49  33 VRB7G16   30.04F
OLATHE - IXD   SUNNY     80  49  33 S12       30.04F
OLATHE - OJC   SUNNY     78  50  37 S12       30.04F
LAWRENCE       SUNNY     82  51  34 S12       30.02F

$$

MOZ001>008-011>017-020>025-030>033-038>040-044>046-053-054-062100-
...NORTHERN AND CENTRAL MISSOURI...

CITY           SKY/WX    TMP DP  RH WIND       PRES   REMARKS
ST. JOSEPH     SUNNY     83  47  28 S10       30.00F
MOSBY          CLEAR     81  45  28 S9        30.02F
WARRENSBURG    SUNNY     77  45  31 S7        30.05F
WHITEMAN AFB   MOSUNNY   78  49  35 SW9       30.04F
CLINTON        SUNNY     77  48  36 S6        30.07F
SEDALIA        SUNNY     79  46  31 SW9       30.06F
WARSAW         NOT AVBL
CHILLICOTHE      N/A     82  51  34 VRB7      30.01F
KIRKSVILLE     SUNNY     82  49  31 SW14G23   30.00F

$$

MOZ041-047>049-056>058-063>065-088>090-097-062100-
...EASTERN AND SOUTHERN MISSOURI...

CITY           SKY/WX    TMP DP  RH WIND       PRES   REMARKS
ST. LOUIS INTL MOSUNNY   79  42  26 W7        30.02F
SPIRIT OF STL  SUNNY     78  45  30 W6        30.01F
COLUMBIA       SUNNY     79  47  32 W13       30.03F
JEFFERSON CITY SUNNY     79  45  29 W10       30.02F
ROLLA          SUNNY     75  45  34 VRB3      30.04F
OSAGE BEACH    SUNNY     79  43  27 CALM      30.06F
SPRINGFIELD    SUNNY     76  42  29 CALM      30.08F
BRANSON        MOSUNNY   75  41  29 NW6       30.10F
JOPLIN         SUNNY     77  48  35 CALM      30.08F
WEST PLAINS    SUNNY     75  43  31 VRB5      30.08F

$$

IAZ060-094-KSZ022-034>040-054-083-096-NEZ052-066-093-062100-
...KANSAS...SOUTHEAST NEBRASKA AND IOWA...

CITY           SKY/WX    TMP DP  RH WIND       PRES   REMARKS
TOPEKA         SUNNY     82  46  28 S12       30.01F
MANHATTAN      MOSUNNY   85  45  24 S12G22    29.98F
EMPORIA        SUNNY     81  48  31 S13       30.02F
CHANUTE        SUNNY     79  50  36 S10       30.06F
WICHITA        MOSUNNY   82  48  30 S17       30.02F
OMAHA          PTSUNNY   87  42  20 SW15G28   29.91F
LINCOLN        SUNNY     88  40  18 S20G28    29.94F
FALLS CITY     SUNNY     84  48  28 S15       29.97F
LAMONI         SUNNY     79  51  37 SW17      29.98F
DES MOINES     MOSUNNY   86  45  23 W15       29.92F

$$




USA.gov is the U.S. government's official web portal to all federal, state and local government web resources and services.